Regional Weather Roundup
Issued by NWS

Home | Current Version | Previous Version | Graphics & Text | Print | Product List | Glossary On
Versions: 1 2 3 4 5 6 7 8 9 10 11 12 13 14 15 16 17 18 19 20 21 22 23 24 25 26 27 28 29 30 31 32 33 34 35 36 37 38 39 40 41 42 43 44 45 46 47 48 49 50
000
ASUS43 KIND 282309
RWRIN

WEATHER ROUNDUP FOR INDIANA
NATIONAL WEATHER SERVICE INDIANAPOLIS IN
600 PM EST SUN DEC 28 2014

NOTE: "FAIR" INDICATES FEW OR NO CLOUDS BELOW 12,000 FEET WITH NO
SIGNIFICANT WEATHER AND/OR OBSTRUCTIONS TO VISIBILITY.

* - STATION DOES NOT REPORT WEATHER SUCH AS PRECIPITATION OR FOG.

+ - STATION NOT QUALITY CONTROLLED BY THE NATIONAL WEATHER SERVICE.
    USE DATA WITH CAUTION...ESPECIALLY DEWPOINT AND RELATIVE
    HUMIDITY OBSERVATIONS.

INZ001>003-010>013-019-020-290000-
NORTHWEST INDIANA

CITY           SKY/WX    TMP DP  RH WIND       PRES   REMARKS
GARY /AIRPORT/ PTCLDY    32  14  47 VRB7      30.19S WCI  26
KNOX *+        CLEAR     29  21  71 W3        30.18S
LA PORTE +     PTCLDY    31  20  64 W3        30.18S
MICHIGAN CITY+ CLEAR     30  12  47 CALM      30.19S
MONTICELLO +   CLEAR     28  25  89 CALM      30.19F
RENSSELAER +   CLEAR     30  28  93 SW5       30.19F WCI  25
VALPARAISO     CLEAR     28  19  69 SW6       30.19S WCI  22

$$

LMZ046-743>745-290000-
SOUTHERN LAKE MICHIGAN

STATION/POSITION TIME  TEMP WIND        PRES
                       AIR  DIR/SP/G
                 (UTC) (F)  (DEG/KT/KT) (MB)
MICHIGAN CITY    2300   32  230/  8/  9   N/A

$$

INZ004-005-014>016-021>024-290000-
NORTH CENTRAL INDIANA

CITY           SKY/WX    TMP DP  RH WIND       PRES   REMARKS
ELKHART        CLEAR     30  18  59 CALM      30.18
GOSHEN         CLEAR     30  24  78 SW8       30.17S WCI  22
LOGANSPORT +   PTCLDY    27  23  86 W6        30.21S WCI  20
PERU/GRISSOM   PTCLDY    27  27 100 W5        30.19R WCI  22
ROCHESTER +    CLEAR     32  28  86 SW3       30.19S
SOUTH BEND     CLEAR     28  17  63 NW7       30.18S WCI  21
WARSAW +       CLEAR     28  25  86 W5        30.17S WCI  23

$$

INZ006>009-017-018-025>027-290000-
NORTHEAST INDIANA

CITY           SKY/WX    TMP DP  RH WIND       PRES   REMARKS
ANGOLA *+      CLEAR     30  25  80 CALM      30.14S
AUBURN +       CLEAR     32  25  74 W3        30.17S
FORT WAYNE     PTCLDY    31  26  82 W6        30.18S WCI  25
HUNTINGTON +   PTCLDY    29  23  78 W5        30.18S WCI  24

$$

INZ028-029-035-036-043>045-051>053-290000-
WEST CENTRAL INDIANA

CITY           SKY/WX    TMP DP  RH WIND       PRES   REMARKS
GREENCASTLE +  MOCLDY    30  19  64 CALM      30.20S
LAFAYETTE      CLEAR     27  22  81 CALM      30.21S
TERRE HAUTE    MOCLDY    30  23  75 NW3       30.22R

$$

INZ030>032-037>040-046>048-054>057-064-065-290000-
CENTRAL INDIANA

CITY           SKY/WX    TMP DP  RH WIND       PRES   REMARKS
CP ATTERBURY + CLOUDY    32  28  86 MISG      30.20S
COLUMBUS       CLOUDY    32  27  80 NW6       30.21R WCI  26
FRANKFORT +    PTCLDY    29  25  85 CALM      30.21S
INDIANAPOLIS   CLOUDY    29  23  78 N5        30.19S WCI  24
-EAGLE CREEK   MOCLDY    29  22  75 NW6       30.20R WCI  23
KOKOMO *+      MOCLDY    28  23  80 NW5       30.20R WCI  23
MARION +       CLOUDY    30  24  79 NW6       30.20R WCI  24
MT COMFORT *+  CLOUDY    30  23  74 NW6       30.20R WCI  24
SHELBYVILLE    CLOUDY    33  27  78 NW7       30.19R WCI  27
ZIONSVILLE +   CLOUDY    30  23  76 W3        30.21R

$$

INZ033-034-041-042-049-050-058-059-290000-
EAST CENTRAL INDIANA

CITY           SKY/WX    TMP DP  RH WIND       PRES   REMARKS
MUNCIE         CLOUDY    31  26  82 NW7       30.18R WCI  24

$$

INZ060-061-067>069-081>083-085>088-290000-
SOUTHWEST INDIANA

CITY           SKY/WX    TMP DP  RH WIND       PRES   REMARKS
EVANSVILLE     CLOUDY    35  29  78 N6        30.21S WCI  30
HUNTINGBURG *+ CLOUDY    34  27  75 N7        30.22S WCI  28
WASHINGTON +   CLOUDY    32  26  76 N6        30.21F WCI  27

$$

INZ062-063-066-070>080-084-089>092-290000-
SOUTH CENTRAL AND SOUTHEAST INDIANA

CITY           SKY/WX    TMP DP  RH WIND       PRES   REMARKS
BLOOMINGTON    CLOUDY    32  26  78 VRB3      30.18F

$$



USA.gov is the U.S. government's official web portal to all federal, state and local government web resources and services.